User: anonymous   Login
Location: Key Biscayne
(25.6930°N, 80.1630°W)
Time: 21:39:08
(UTC-04:00)
Language:

CZ-2D R/B - Orbit

View from above orbital plane
View from above orbital plane
View from above satellite
View from above satellite

Ground track
Ground track

The orbit data is extracted from the following two-line orbital elements,

1 28738U 05024B   16152.65413079  .00000993  00000-0  64035-4 0  9992
2 28738  97.5433 189.9996 0011082 231.5623 128.4613 15.10538984598209
Epoch (UTC): 31 May 2016 15:41:56
Eccentricity: 0.0011082
inclination: 97.5433°
perigee height: 527 km
apogee height: 542 km
right ascension of ascending node: 189.9996°
argument of perigee: 231.5623°
revolutions per day: 15.10538984
mean anomaly at epoch: 128.4613°
orbit number at epoch: 59820

The dashed part of the orbit path shows where the satellite is in the earth's shadow,  

DLR